Location: Serin Observatory
(40.5200°N, 74.4500°W)
Time: 05:16:37
(UTC+00:00)

SL-8 R/B - Visible Passes

Search period start: 20 April 2018 00:00
Search period end: 30 April 2018 00:00
Orbit: 656 x 668 km, 48.4° (Epoch: 19 April)

Date Brightness Start Highest point End Pass type
(mag) Time Alt. Az. Time Alt. Az. Time Alt. Az.
20 Apr 3.5 01:35:10 10° SW 01:39:55 69° SE 01:41:34 40° ENE visible
20 Apr 6.0 03:18:10 10° W 03:19:41 19° WNW 03:19:41 19° WNW visible
20 Apr 6.4 06:53:52 11° ESE 06:53:52 11° ESE 06:54:03 10° ESE visible
20 Apr 4.3 08:31:59 33° SSW 08:31:59 33° SSW 08:35:58 10° SSE visible
21 Apr 4.4 00:24:21 10° SSW 00:28:37 33° SE 00:32:54 10° ENE visible
21 Apr 4.1 02:06:13 10° WSW 02:10:58 62° NNW 02:12:51 35° NE visible
21 Apr 6.3 03:49:49 10° WNW 03:50:55 16° WNW 03:50:55 16° WNW visible
21 Apr 5.7 09:04:03 12° SSW 09:04:03 12° SSW 09:04:42 10° SSW visible
22 Apr 3.6 00:54:39 10° SW 00:59:25 73° SE 01:04:13 10° ENE visible
22 Apr 4.9 02:37:44 10° W 02:42:14 39° NNW 02:43:31 33° NNE visible
22 Apr 6.6 04:21:17 10° WNW 04:21:33 11° WNW 04:21:33 11° WNW visible
23 Apr 4.2 01:25:45 10° WSW 01:30:29 59° NNW 01:35:15 10° NE visible
23 Apr 5.3 03:09:21 10° WNW 03:13:40 32° N 03:13:44 32° N visible
24 Apr 3.7 00:14:09 10° SW 00:18:55 78° SSE 00:23:43 10° ENE visible
24 Apr 5.0 01:57:17 10° W 02:01:46 38° NNW 02:05:40 13° NE visible
24 Apr 5.7 03:40:49 10° WNW 03:43:39 27° NNW 03:43:39 27° NNW visible
25 Apr 4.4 00:45:17 10° WSW 00:50:00 57° NNW 00:54:44 10° NE visible
25 Apr 5.3 02:28:55 10° WNW 02:33:13 32° N 02:35:24 22° NE visible
25 Apr 6.1 04:11:59 10° NW 04:13:22 18° NW 04:13:22 18° NW visible
26 Apr 5.1 01:16:50 10° W 01:21:19 37° NNW 01:25:47 10° NE visible
26 Apr 5.1 03:00:20 10° WNW 03:04:42 33° N 03:05:00 33° NNE visible
27 Apr 5.3 01:48:28 10° WNW 01:52:45 31° N 01:56:33 12° ENE visible
27 Apr 5.3 03:31:30 10° NW 03:34:31 33° NNW 03:34:31 33° NNW visible
28 Apr 5.1 00:36:24 10° W 00:40:50 36° NNW 00:45:18 10° NE visible
28 Apr 5.1 02:19:52 10° WNW 02:24:14 33° N 02:26:02 25° NE visible
28 Apr 5.9 04:02:29 10° WNW 04:04:00 20° NW 04:04:00 20° NW visible
29 Apr 5.3 01:08:00 10° WNW 01:12:17 31° N 01:16:35 10° ENE visible
29 Apr 4.6 02:51:00 10° NW 02:55:30 45° NNE 02:55:30 45° NNE visible
